RYR63XL EGNX-EIKN

Flight info

Callsign RYR63XL
Flight time N/A
Altitude 34000
Route TNT Q4 VABKA UL8 ASNIP UL28 PENIL M144 BAGSO DCT SUROX DCT EDONO EDONO1A
Aircraft B38M/M-SDE1FGHILORVWXY/HB1

Departure

Time 2026-04-28 19:41
Airport East Midlands Airport (EGNX)

Arrival

Time N/A
Airport Ireland West Airport Knock (EIKN)
Time Latitude Longitude Altitude Speed Heading
2026-04-28 19:25 52.82710 -1.33209 303 ft 0 kts 178°
2026-04-28 19:33 52.82726 -1.33209 303 ft 4 kts 183°
2026-04-28 19:33 52.82752 -1.33203 303 ft 4 kts 196°
2026-04-28 19:33 52.82776 -1.33185 304 ft 4 kts 220°
2026-04-28 19:33 52.82788 -1.33159 304 ft 1 kts 249°
2026-04-28 19:34 52.82790 -1.33153 303 ft 0 kts 249°
2026-04-28 19:37 52.82789 -1.33154 303 ft 1 kts 249°
2026-04-28 19:37 52.82798 -1.33185 303 ft 6 kts 360°
2026-04-28 19:37 52.82876 -1.33163 303 ft 11 kts
2026-04-28 19:38 52.82922 -1.33228 305 ft 7 kts 280°
2026-04-28 19:38 52.82921 -1.33323 309 ft 10 kts 267°
2026-04-28 19:38 52.82918 -1.33491 309 ft 20 kts 268°
2026-04-28 19:38 52.82913 -1.33742 307 ft 23 kts 268°
2026-04-28 19:39 52.82908 -1.34022 304 ft 26 kts 268°
2026-04-28 19:39 52.82907 -1.34318 307 ft 24 kts 271°
2026-04-28 19:39 52.82904 -1.34608 309 ft 27 kts 268°
2026-04-28 19:39 52.82898 -1.34845 308 ft 13 kts 268°
2026-04-28 19:40 52.82934 -1.34932 309 ft 10 kts 346°
2026-04-28 19:40 52.83012 -1.34939 307 ft 9 kts 358°
2026-04-28 19:40 52.83061 -1.34888 308 ft 12 kts 68°
2026-04-28 19:40 52.83066 -1.34694 305 ft 30 kts 88°
2026-04-28 19:41 52.83084 -1.33887 306 ft 107 kts 89°
2026-04-28 19:41 52.83111 -1.32339 463 ft 151 kts 85°
2026-04-28 19:41 52.83140 -1.30521 1209 ft 159 kts 85°
2026-04-28 19:41 52.83071 -1.28691 2271 ft 165 kts 90°
2026-04-28 19:42 52.82962 -1.26693 3096 ft 184 kts 86°
2026-04-28 19:42 52.83382 -1.24600 3785 ft 207 kts 54°
2026-04-28 19:42 52.84626 -1.23162 4589 ft 236 kts 21°
2026-04-28 19:42 52.85750 -1.22961 5136 ft 258 kts 359°
2026-04-28 19:43 52.87925 -1.24857 5731 ft 281 kts 314°
2026-04-28 19:43 52.88968 -1.27628 5895 ft 286 kts 304°
2026-04-28 19:43 52.90026 -1.30428 5982 ft 287 kts 306°
2026-04-28 19:43 52.91129 -1.33185 6019 ft 287 kts 307°
2026-04-28 19:44 52.92253 -1.35911 6016 ft 286 kts 308°
2026-04-28 19:44 52.93388 -1.38621 6026 ft 286 kts 308°
2026-04-28 19:44 52.94534 -1.41338 6239 ft 290 kts 308°
2026-04-28 19:44 52.95687 -1.44064 7333 ft 287 kts 308°
2026-04-28 19:45 52.96834 -1.46759 8396 ft 293 kts 308°
2026-04-28 19:45 52.98022 -1.49556 9388 ft 300 kts 308°
2026-04-28 19:45 52.99232 -1.52409 10433 ft 305 kts 308°
2026-04-28 19:45 53.00480 -1.55353 11149 ft 320 kts 308°
2026-04-28 19:46 53.01786 -1.58441 11854 ft 333 kts 308°
2026-04-28 19:46 53.03128 -1.61618 12750 ft 338 kts 308°
2026-04-28 19:46 53.04487 -1.64837 13686 ft 343 kts 309°
2026-04-28 19:46 53.05612 -1.68375 14522 ft 353 kts 290°
2026-04-28 19:47 53.06282 -1.72332 15307 ft 359 kts 289°
2026-04-28 19:47 53.06983 -1.76347 16061 ft 364 kts 289°
2026-04-28 19:47 53.07685 -1.80418 16811 ft 369 kts 289°
2026-04-28 19:47 53.08390 -1.84552 17532 ft 374 kts 289°
2026-04-28 19:48 53.09102 -1.88746 18284 ft 379 kts 289°
2026-04-28 19:48 53.09821 -1.92994 18946 ft 384 kts 289°
2026-04-28 19:48 53.10547 -1.97299 19566 ft 388 kts 289°
2026-04-28 19:48 53.11279 -2.01647 20169 ft 392 kts 289°
2026-04-28 19:49 53.12018 -2.06042 20744 ft 397 kts 290°
2026-04-28 19:49 53.12763 -2.10495 21317 ft 402 kts 290°
2026-04-28 19:49 53.13515 -2.14998 21915 ft 405 kts 290°
2026-04-28 19:49 53.14294 -2.19526 22492 ft 407 kts 294°
2026-04-28 19:50 53.16753 -2.28003 23619 ft 411 kts 302°
2026-04-28 19:50 53.18028 -2.32280 24182 ft 414 kts 302°
2026-04-28 19:50 53.19297 -2.36545 24668 ft 417 kts 302°
2026-04-28 19:51 53.20608 -2.40956 25189 ft 420 kts 302°
2026-04-28 19:51 53.21905 -2.45333 25678 ft 423 kts 302°
2026-04-28 19:51 53.23194 -2.49689 26148 ft 425 kts 302°
2026-04-28 19:51 53.24504 -2.54125 26699 ft 427 kts 302°